Regional Weather Roundup
Issued by NWS

Home | Current Version | Previous Version | Graphics & Text | Print | Product List | Glossary On
Versions: 1 2 3 4 5 6 7 8 9 10 11 12 13 14 15 16 17 18 19 20 21 22 23 24 25 26 27 28 29 30 31 32 33 34 35 36 37 38 39 40 41 42 43 44 45 46 47 48 49 50
677
ASUS43 KOAX 190910
RWRNE

WEATHER ROUNDUP FOR NEBRASKA
NATIONAL WEATHER SERVICE OMAHA NE
400 AM CDT SAT AUG 19 2017

NOTES: SATELLITE DATA IS BEING USED TO AUGMENT CLOUD COVER ABOVE
       12000 FEET.
       "FAIR" INDICATES FEW OR NO CLOUDS BELOW 12,000 FEET WITH NO
       SIGNIFICANT WEATHER AND/OR OBSTRUCTIONS TO VISIBILITY.


NEZ001>004-019>022-054>056-191000-
NEBRASKA PANHANDLE

CITY           SKY/WX    TMP DP  RH WIND       PRES   REMARKS
SCOTTSBLUFF    CLEAR     63  50  62 E8        30.00F
ALLIANCE       CLEAR     58  49  72 S8        30.01F
CHADRON        CLEAR     72  46  39 S17       29.93F
GORDON         FAIR      62  54  74 S5        29.99F
KIMBALL        CLEAR     64  52  64 S9        30.08F
SIDNEY         CLEAR     64  52  64 S13       30.06F
$$

NEZ057>060-069>072-079>082-191000-
SOUTHWEST NEBRASKA

CITY           SKY/WX    TMP DP  RH WIND       PRES   REMARKS
NORTH PLATTE   CLEAR     58  56  93 E5        30.02F
IMPERIAL       CLEAR     60  54  80 S3        30.04F
LEXINGTON      CLEAR     59  57  93 CALM      30.03S
MCCOOK         CLEAR     60  56  86 W5        30.01S
OGALLALA       CLEAR     67  56  68 SW6       30.03S
$$

NEZ005>010-023>029-035>040-094-191000-
NORTH CENTRAL NEBRASKA

CITY           SKY/WX    TMP DP  RH WIND       PRES   REMARKS
VALENTINE      CLEAR     64  54  69 S10       29.99F
AINSWORTH      CLEAR     60  58  92 S8        30.01S
BROKEN BOW     CLEAR     57  55  93 CALM      30.02S
O`NEILL        CLEAR     58  58 100 CALM      30.00S
ORD            CLEAR     57  55  93 CALM      29.99S
THEDFORD       CLEAR     60  57  90 S6        30.03F
$$

NEZ041-046>049-061>064-073>077-083>087-191000-
SOUTH CENTRAL NEBRASKA

CITY           SKY/WX    TMP DP  RH WIND       PRES   REMARKS
GRAND ISLAND   CLEAR     64  61  90 CALM      30.00S
AURORA         CLEAR     62  61  97 CALM      29.99S
HASTINGS       CLEAR     64  59  83 NE3       30.01S
HEBRON         CLEAR     62  61  96 CALM      29.98S
HOLDREGE       CLEAR     59  56  89 CALM      30.01F
KEARNEY        CLEAR     64  61  90 N3        30.02S
YORK           CLEAR     63  63 100 CALM      29.99S
$$

NEZ011>018-030>034-042>045-191000-
NORTHEAST NEBRASKA

CITY           SKY/WX    TMP DP  RH WIND       PRES   REMARKS
NORFOLK        CLEAR     56  55  97 W3        29.97F
ALBION         CLEAR     57  56  97 NW3       29.99S
BLAIR          CLEAR     64  59  84 N8        29.95R
COLUMBUS       CLEAR     58  56  93 CALM      29.98S
FREMONT        CLEAR     60  59  96 W3        29.96S
TEKAMAH        CLEAR     60  57  89 NW6       29.95S
WAYNE          CLEAR     54  51  90 CALM      29.97R
$$

NEZ050>053-065>068-078-088>093-191000-
SOUTHEAST NEBRASKA

CITY           SKY/WX    TMP DP  RH WIND       PRES   REMARKS
LINCOLN        CLEAR     67  61  81 CALM      29.97S
OMAHA EPPLEY   CLEAR     63  59  87 N7        29.94S
BEATRICE       CLEAR     62  61  97 CALM      29.96F
FALLS CITY     CLEAR     65  63  93 CALM      29.94R
NEBRASKA CITY  CLEAR     66  66 100 CALM      29.96R
PLATTSMOUTH    CLEAR     64  61  91 CALM      29.94S
$$

NEZ044-045-051>053-067-191000-
OMAHA AREA

CITY           SKY/WX    TMP DP  RH WIND       PRES   REMARKS
OMAHA EPPLEY   CLEAR     63  59  87 N7        29.94S
BLAIR          CLEAR     64  59  84 N8        29.95R
FREMONT        CLEAR     60  59  96 W3        29.96S
MILLARD        CLEAR     67  60  78 NW5       29.95R
OFFUTT AFB     CLEAR     59  56  90 CALM      29.93R
PLATTSMOUTH    CLEAR     64  61  91 CALM      29.94S
WAHOO          FAIR      62  60  95 CALM      29.96R
$$




USA.gov is the U.S. government's official web portal to all federal, state and local government web resources and services.